Location: Axtheid
(49.6213°N, 11.8205°E)
Time: 19:53:10
(UTC+00:00)

SKYMED 2 - Pass Details

Date: 24 January 2021
Orbit: 621 x 623 km, 97.9° (Epoch: 02 March)

Event Time Altitude Azimuth Distance (km) Brightness Sun altitude
Rises 16:42:34 0° 21° (NNE) 2,917 6.6 -7.8°
Reaches altitude 10° 16:44:58 10° 32° (NNE) 2,005 5.7 -8.2°
Maximum altitude 16:48:53 32° 96° (E) 1,080 4.3 -8.8°
Drops below altitude 10° 16:52:46 10° 160° (SSE) 1,988 6.1 -9.4°
Sets 16:55:08 0° 170° (S) 2,889 7.1 -9.7°
